Winnipeg, Manitoba

8:52 AM CDT on July 27, 2017 (GMT -0500)
Winnipeg International Airport

Weather History for CYWG - February, 2013

Change the Weather History Date:

Wednesday, February 13, 2013

  Actual Average Record
Temperature  
Mean Temperature 16 °F -  
Max Temperature 26 °F 21 °F 39 °F (2011)
Min Temperature 5 °F 2 °F -31 °F (2007)
Degree Days  
Heating Degree Days 50    
Moisture  
Dew Point 14 °F    
Average Humidity 88    
Maximum Humidity 100    
Minimum Humidity 73    
Precipitation  
Precipitation 0.00 in 0.02 in - ()
Sea Level Pressure  
Sea Level Pressure 29.73 in    
Wind  
Wind Speed 7 mph ()    
Max Wind Speed 17 mph    
Max Gust Speed -    
Visibility 12.4 miles    
Events      
Averages and records for this station are not official NWS values.
T = Trace of Precipitation, MM = Missing Value Source: Averaged Metar Reports

Daily Weather History Graph

Daily Weather History Graph

Search for Another Location

Airport or City:

Trip Planner

Search our weather history database for the weather conditions in past years. The results will help you decide how hot, cold, wet, or windy it might be!

Date:

Astronomy

Feb. 13, 2013 Rise Set
Actual Time 7:42 AM CST 5:44 PM CST
Civil Twilight 7:08 AM CST 6:18 PM CST
Nautical Twilight 6:30 AM CST 6:56 PM CST
Astronomical Twilight 5:53 AM CST 7:33 PM CST
Moon 8:45 AM CST (2/13) 10:19 PM CST (2/13)
Length of Visible Light 11h 09m
Length of Day
10h 02m
Waxing Crescent, 14% of the Moon is Illuminated
Feb 13
Waxing Crescent
Feb 17
First Quarter
Feb 25
Full
Mar 4
Last Quarter
Mar 11
New

Hourly Weather History & Observations

Time (CST) Temp. Windchill Dew Point Humidity Pressure Visibility Wind Dir Wind Speed Gust Speed Precip Events Conditions
12:00 AM 17 °F - 15 °F 85% 29.68 in 9 mi Calm Calm - -  
12:00 AM 17.6 °F 6.4 °F 15.8 °F 93% 29.68 in 15.0 mi West 9.2 mph - N/A   Partly Cloudy
1:00 AM 14.0 °F 2.0 °F 12.2 °F 93% 29.70 in 15.0 mi West 9.2 mph - N/A   Partly Cloudy
2:00 AM 17.6 °F 6.4 °F 15.8 °F 93% 29.69 in - West 9.2 mph - N/A   Partly Cloudy
3:00 AM 15.8 °F 3.4 °F 15.8 °F 100% 29.69 in 15.0 mi West 10.4 mph - N/A   Partly Cloudy
4:00 AM 15.8 °F 5.1 °F 14.0 °F 93% 29.68 in 15.0 mi West 8.1 mph - N/A   Clear
5:00 AM 12.2 °F - 10.4 °F 92% 29.68 in 15.0 mi West 2.3 mph - N/A   Clear
6:00 AM 10 °F - 9 °F 92% 29.69 in 3 mi Calm Calm - -  
6:00 AM 12.2 °F -0.2 °F 10.4 °F 92% 29.69 in 15.0 mi West 9.2 mph - N/A   Scattered Clouds
7:00 AM 6.8 °F -4.8 °F 5.0 °F 92% 29.68 in 8.0 mi WNW 6.9 mph - N/A   Mostly Cloudy
8:00 AM 8.6 °F 0.1 °F 6.8 °F 92% 29.68 in 8.0 mi WNW 4.6 mph - N/A   Overcast
9:00 AM 12.2 °F 4.3 °F 8.6 °F 85% 29.69 in 8.0 mi West 4.6 mph - N/A   Overcast
10:00 AM 15.8 °F 7.2 °F 14.0 °F 93% 29.70 in 10.0 mi West 5.8 mph - N/A   Overcast
11:00 AM 17.6 °F - 15.8 °F 93% 29.69 in 10.0 mi Variable 2.3 mph - N/A   Overcast
12:00 PM 20 °F - 19 °F 96% 29.70 in 9 mi Calm Calm - -   Overcast
12:00 PM 19.4 °F 12.8 °F 19.4 °F 100% 29.70 in 10.0 mi NW 4.6 mph - N/A   Overcast
1:00 PM 24.8 °F 17.9 °F 21.2 °F 86% 29.70 in 12.0 mi NNE 5.8 mph - N/A   Mostly Cloudy
2:00 PM 26.6 °F 21.2 °F 21.2 °F 80% 29.71 in 15.0 mi North 4.6 mph - N/A   Overcast
3:00 PM 24.8 °F 14.0 °F 21.2 °F 86% 29.73 in 15.0 mi NNE 11.5 mph - N/A   Overcast
4:00 PM 24.8 °F 16.9 °F 21.2 °F 86% 29.74 in 15.0 mi NNE 6.9 mph - N/A   Mostly Cloudy
5:00 PM 24.8 °F 14.6 °F 19.4 °F 80% 29.76 in 15.0 mi NNE 10.4 mph - N/A   Mostly Cloudy
6:00 PM 21 °F - 17 °F 77% 29.80 in 9 mi Calm Calm - -   Overcast
6:00 PM 21.2 °F 10.1 °F 15.8 °F 80% 29.79 in 15.0 mi NE 10.4 mph - N/A   Overcast
7:00 PM 19.4 °F 8.6 °F 15.8 °F 86% 29.82 in 15.0 mi North 9.2 mph - N/A   Mostly Cloudy
8:00 PM 19.4 °F 8.6 °F 15.8 °F 86% 29.84 in 15.0 mi North 9.2 mph - N/A   Mostly Cloudy
9:00 PM 17.6 °F 2.2 °F 10.4 °F 73% 29.86 in 15.0 mi North 17.3 mph - N/A   Scattered Clouds
10:00 PM 14.0 °F 2.0 °F 6.8 °F 73% 29.88 in 15.0 mi North 9.2 mph - N/A   Scattered Clouds
11:00 PM 10.4 °F -2.4 °F 5.0 °F 79% 29.91 in 15.0 mi North 9.2 mph - N/A   Mostly Cloudy